Regional Weather Roundup
Issued by NWS

Home | Current Version | Previous Version | Graphics & Text | Print | Product List | Glossary On
Versions: 1 2 3 4 5 6 7 8 9 10 11 12 13 14 15 16 17 18 19 20 21 22 23 24 25 26 27 28 29 30 31 32 33 34 35 36 37 38 39 40 41 42 43 44 45 46 47 48 49 50
000
ASUS43 KMKX 202100
RWRWI

WISCONSIN REGIONAL WEATHER ROUNDUP
NATIONAL WEATHER SERVICE MILWAUKEE/SULLIVAN WI
300 PM CST SAT DEC 20 2014

NOTE: "FAIR" INDICATES FEW OR NO CLOUDS BELOW 12,000 FEET WITH NO
SIGNIFICANT WEATHER AND/OR OBSTRUCTIONS TO VISIBILITY.

WIZ001-002-006>008-014>016-023>028-202200-
NORTHWEST WISCONSIN

CITY           SKY/WX    TMP DP  RH WIND       PRES   REMARKS
SUPERIOR ARPT  CLOUDY    32  28  85 S6        30.11S WCI  26
ASHLAND        CLOUDY    32  26  78 S7        30.14S WCI  26
HAYWARD        CLOUDY    30  25  81 S7        30.12S HAZE    WCI  23
SIREN          CLOUDY    32  27  83 S7        30.11S WCI  26
CUMBERLAND     CLOUDY    30  27  86 S10       30.11F WCI  21
RICE LAKE      CLOUDY    32  27  81 SE10      30.14F WCI  23
CHETEK         CLOUDY    31  26  84 E9        30.14S WCI  22
LADYSMITH      CLOUDY    31  26  84 SE7       30.16S WCI  24
EAU CLAIRE     CLOUDY    32  25  74 SE8       30.15S WCI  25
MENOMONIE      CLOUDY    32  27  83 SE9       30.14F HAZE    WCI  24
NEW RICHMOND   CLOUDY    31  29  94 S8        30.12F FOG     WCI  24
OSCEOLA        CLOUDY    32  29  89 S8        30.15S FOG     WCI  25
$$

WIZ003>005-009-010-017-018-202200-
NORTH CENTRAL WISCONSIN

CITY           SKY/WX    TMP DP  RH WIND       PRES   REMARKS
MANITOWISH WTR CLOUDY    27  26  94 S7        30.12S FOG     WCI  19
ARBOR VITAE    CLOUDY    29  26  89 S6        30.13S FOG     WCI  23
WOODRUFF       CLOUDY    29  26  89 S6        30.13S FOG     WCI  23
RHINELANDER    CLOUDY    27  24  89 S6        30.14S WCI  20
EAGLE RIVER    LGT SNOW  27  27  98 CALM      30.13S
LAND O LAKES   CLOUDY    27  26  94 CALM      30.14R FOG
PHILLIPS       CLOUDY    28  25  87 SE8       30.13S WCI  20
TOMAHAWK       CLOUDY    28  24  88 CALM      30.16S FOG
MEDFORD        CLOUDY    28  25  89 SE6       30.15S FOG     WCI  21
MERRILL        CLOUDY    28  26  91 S3        30.17S FOG
$$

WIZ029-030-035-036-043>047-202200-
CENTRAL WISCONSIN

CITY           SKY/WX    TMP DP  RH WIND       PRES   REMARKS
WAUSAU         CLOUDY    30  24  78 S7        30.16S WCI  23
MOSINEE        CLOUDY    28  27  93 S6        30.18S WCI  22
MARSHFIELD     CLOUDY    30  25  81 SE7       30.16F HAZE    WCI  23
STEVENS POINT  CLOUDY    29  24  81 S6        30.19R WCI  22
WAUPACA        LGT SNOW  32  25  76 SE3       30.21S
WAUTOMA        NOT AVBL
WISC RAPIDS    CLOUDY    31  24  75 SE6       30.20S WCI  25
CAMP DOUGLAS   NOT AVBL
$$

WIZ011>013-019>022-031-037>040-048>050-202200-
NORTHEAST WISCONSIN

CITY           SKY/WX    TMP DP  RH WIND       PRES   REMARKS
ANTIGO         CLOUDY    26  24  93 S6        30.17S FOG     WCI  19
SHAWANO        CLOUDY    31  26  80 CALM      30.22S
OCONTO         CLOUDY    29  23  80 CALM      30.23R
STURGEON BAY   CLOUDY    30  23  74 CALM      30.24R
GREEN BAY      CLOUDY    30  24  78 CALM      30.23R
MANITOWOC      NOT AVBL
APPLETON       LGT SNOW  28  21  74 CALM      30.22S
CLINTONVILLE   CLOUDY    30  25  80 SE5       30.21F WCI  25
OSHKOSH        CLOUDY    29  24  82 CALM      30.23R HAZE
$$

WIZ032>034-041-042-053>061-202200-
SOUTHWEST WISCONSIN

CITY           SKY/WX    TMP DP  RH WIND       PRES   REMARKS
LA CROSSE      CLOUDY    33  27  78 S7        30.18R WCI  27
SPARTA         CLOUDY    31  26  83 SE6       30.18F HAZE    WCI  25
VIROQUA        CLOUDY    29  29 100 SE8       30.16S WCI  21
BOSCOBEL       CLOUDY    33  25  72 CALM      30.20S
PRAIRIE DU CHI CLOUDY    32  27  83 SE7       30.18F HAZE    WCI  26
PLATTEVILLE    CLOUDY    32  27  82 CALM      30.19S
$$

WIZ056-057-062-063-064-067-068-202200-
SOUTH CENTRAL WISCONSIN

CITY           SKY/WX    TMP DP  RH WIND       PRES   REMARKS
REEDSBURG      DRIZZLE   29  26  88 CALM      30.19F
BARABOO/DELLS  CLOUDY    30  26  84 S5        30.19F FOG     WCI  25
LONE ROCK      NOT AVBL
MINERAL POINT  CLOUDY    32  28  86 SE7       30.17F FOG     WCI  26
MADISON        LGT SNOW  30  27  88 S7        30.21S FOG     WCI  23
MIDDLETON      CLOUDY    31  29  92 S5        30.21S WCI  26
WATERTOWN      MIX PCPN  29  26  88 S3        30.22R
MONROE         CLOUDY    30  28  93 S6        30.20S WCI  24
JANESVILLE     DRIZZLE   32  27  80 S5        30.22S WCI  27
$$

WIZ051-052-058>065-066-070>072-202200-
SOUTHEAST WISCONSIN

CITY           SKY/WX    TMP DP  RH WIND       PRES   REMARKS
MILWAUKEE      FLURRIES  31  22  69 W5        30.23S WCI  26
WAUKESHA       CLOUDY    28  23  80 CALM      30.23S
MILWAUKEE/TIMM FLURRIES  30  21  69 CALM      30.24S
RACINE         CLOUDY    31  24  75 W5        30.25S WCI  26
BURLINGTON     CLOUDY    30  24  78 CALM      30.23R
KENOSHA        CLOUDY    32  24  72 W3        30.23S
FOND DU LAC    LGT SNOW  30  24  78 S5        30.22S WCI  25
SHEBOYGAN      LGT SNOW  31  23  72 CALM      30.23R
WEST BEND      FLURRIES  30  23  74 CALM      30.22S
JUNEAU         CLOUDY    29  25  84 S3        30.23R
$$

LSZ147-162-202200-
LAKE SUPERIOR

STATION/POSITION TIME  TEMP    WIND        PRES    WAVE
                       AIR SEA DIR/SP/G            HT/PER
                 (UTC) (F)     (DEG/KT/KT) (MB)    (FT/S)
DEVILS ISLAND    2000   32     180/  8/ 11 1021.2F
PORT WING        2000   33     160/  4/  7 1020.0F
SAXON HARBOR     2000   33     210/  5/ 11 1020.7S
$$

LMZ867-665-643>646-202200-
LAKE MICHIGAN

STATION/POSITION TIME  TEMP    WIND        PRES    WAVE
                       AIR SEA DIR/SP/G            HT/PER
                 (UTC) (F)     (DEG/KT/KT) (MB)    (FT/S)
CHAMBERS ISLAND  2000   28     220/  2/  3 1023.7F
NORTHPORT PIER   2000   31      CALM  /  3 1023.4F
SISTER BAY       1858             CALM       N/A
ALGOMA LAKESHORE 2014             CALM       N/A
KEWAUNEE LAKESHO 2000   34      CALM  /  1 1022.6F
SHEBOYGAN LAKESH 2000   31 33  350/  5/  6 1024.5F
PORT WASHINGTON  2040   32     200/  1/  4 1024.4S
MILWAUKEE LAKESH 2000   31     260/  3/  4   N/A
KENOSHA   LAKESH 2000   31     260/  7/  8 1024.0F
$$

TC  - TEMPERATURE IN CELSIUS
VSB - VISIBILITY IN STATUTE MILES
WCI - WIND CHILL INDEX
HX  - HEAT INDEX



USA.gov is the U.S. government's official web portal to all federal, state and local government web resources and services.